This demonstration page uses our WeatherBlox Daily Observations layout. Learn more.

Left ArrowRight Arrow

41.86663, -103.66717

Hourly Observations for November 11, 2019

Temp ( °F °C ) Dew Point ( °F °C ) Humidity (%) Winds ( mph kmh ) Pressure ( in mb ) Visibility ( mi km ) Precip ( " mm )
12:33 am 00:33 Mostly Cloudy with Light Snow 14 -10 10 -12.2 84 84 N 14 22 30.77 1042 1 2 0.04 1.02
12:44 am 00:44 Cloudy with Light Snow 14 -10 10 -12 85 85 N 14 22 30.77 1042 2 3 0.00 0.00
12:53 am 00:53 Cloudy with Light Snow 13 -10.6 9 -12.8 84 84 N 15 24 30.56 1035 3 4 0.05 1.27
1:04 am 01:04 Cloudy with Light Snow 13 -10.6 9 -12.8 84 84 N 17 28 30.78 1042 3 5 0.00 0.00
1:53 am 01:53 Cloudy with Light Snow 12 -11.1 7 -13.9 80 80 N 14 22 30.62 1037 3 5 0.00 0.00
2:53 am 02:53 Cloudy 10 -12.2 4 -15.6 76 76 N 10 17 30.69 1039 10 16 0.00 0.00
3:53 am 03:53 Cloudy 10 -12.2 4 -15.6 76 76 N 8 13 30.73 1041 10 16 0.00 0.00
4:05 am 04:05 Cloudy 10 -12.2 4 -15.6 76 76 N 8 13 30.88 1046 10 16 0.00 0.00
4:49 am 04:49 Cloudy 10 -12 3 -16 72 72 NNW 7 11 30.89 1046 10 16 0.00 0.00
4:53 am 04:53 Cloudy 10 -12.2 4 -15.6 76 76 NNW 7 11 30.75 1041 10 16 0.00 0.00
5:00 am 05:00 Cloudy 10 -12.2 4 -15.6 76 76 NNW 6 9 30.89 1046 10 16 0.00 0.00
5:53 am 05:53 Mostly Clear 5 -15 0 -17.8 79 79 N 8 13 30.79 1043 10 16 0.00 0.00
6:53 am 06:53 Sunny 0 -17.8 -3 -19.4 87 87 NW 6 9 30.81 1044 10 16 0.00 0.00
7:53 am 07:53 Sunny 4 -15.6 -2 -18.9 76 76 WNW 3 6 30.82 1044 10 16 0.00 0.00
8:53 am 08:53 Sunny 8 -13.3 0 -17.8 69 69 WNW 7 11 30.82 1044 10 16 0.00 0.00
9:53 am 09:53 Sunny 11 -11.7 1 -17.2 64 64 NW 10 17 30.81 1043 10 16 0.00 0.00
10:53 am 10:53 Sunny 14 -10 3 -16.1 61 61 WNW 12 19 30.79 1043 10 16 0.00 0.00
11:53 am 11:53 Sunny 17 -8.3 5 -15 59 59 W 8 13 30.77 1042 10 16 0.00 0.00
12:53 pm 12:53 Sunny 18 -7.8 5 -15 57 57 NW 7 11 30.73 1041 10 16 0.00 0.00
1:53 pm 13:53 Sunny 20 -6.7 6 -14.4 55 55 W 6 9 30.71 1040 10 16 0.00 0.00
2:53 pm 14:53 Sunny 20 -6.7 7 -13.9 57 57 W 3 6 30.70 1040 10 16 0.00 0.00
3:53 pm 15:53 Sunny 19 -7.2 8 -13.3 62 62 W 3 6 30.69 1039 10 16 0.00 0.00
4:53 pm 16:53 Clear 15 -9.4 7 -13.9 70 70 Calm 30.69 1039 10 16 0.00 0.00
5:53 pm 17:53 Clear 10 -12.2 6 -14.4 84 84 Calm 30.72 1040 10 16 0.00 0.00
6:53 pm 18:53 Clear 8 -13.3 4 -15.6 83 83 E 5 7 30.73 1041 10 16 0.00 0.00
7:53 pm 19:53 Clear 5 -15 1 -17.2 83 83 E 6 9 30.71 1040 10 16 0.00 0.00
8:53 pm 20:53 Clear 5 -15 1 -17.2 83 83 ENE 5 7 30.69 1039 10 16 0.00 0.00
9:53 pm 21:53 Clear 4 -15.6 1 -17.2 88 88 Calm 30.67 1039 10 16 0.00 0.00
10:53 pm 22:53 Clear 5 -15 0 -17.8 79 79 SE 3 6 30.63 1037 10 16 0.00 0.00
11:53 pm 23:53 Clear 2 -16.7 -1 -18.3 88 88 Calm 30.60 1036 10 16 0.00 0.00

Powered by AerisWeather